Flag for Canada Weather past 2 weeks in Caledon, Ontario, Canada

Now
57 °F

Low clouds.


Feels Like: 57 °F
Forecast: 53 / 66 °F
Wind: No wind

Location: Borden

Current Time: Oct 1, 2014 at 2:41:28 AM

Latest Report: Oct 1, 2014 at 2:00 AM


Visibility: 9 mi

Pressure: 30.05 "Hg

Humidity: 94%

Dew point: 55 °F

Location of CaledonLocation

Historic Weather in Caledon — Graph

°F

Caledon temperature yesterday

Maximum temperature yesterday: 68 °F (at 2:00 PM)
Minimum temperature yesterday: 55 °F (at 12:00 AM)
Average temperature yesterday: 61 °F

Past Weeks' High & Low Weather Summary

 TemperatureHumidityPressure
High77 °F (Sep 28, 3:00 PM)100% (Sep 16, 1:00 AM)30.50 "Hg (Sep 16, 1:00 AM)
Low27 °F (Sep 19, 4:00 AM)47% (Sep 29, 5:00 PM)29.50 "Hg (Sep 21, 11:00 AM)
Average55 °F86%30.11 "Hg
* Reported Sep 16 1:00 AM — Oct 1 1:51 AM, Caledon, Weather by CustomWeather, © 2014

Note: Actual official high and low records may vary slightly from our data, if they occured in-between our weather recording intervals... More about our weather records

Advertising

Caledon weather history for previous 24 hours

 ConditionsComfort  
Time TempWeatherWind HumidityBarometerVisibility
1:51 AM
Oct 1
57 °FLow clouds.No wind94%30.04 "Hg9 mi
1:00 AM57 °FOvercast.5 mph94%30.04 "Hg9 mi
12:00 AM59 °FMostly cloudy.7 mph94%30.03 "Hg9 mi
11:00 PM
Sep 30
59 °FPassing clouds.7 mph94%30.01 "Hg9 mi
10:00 PM61 °FOvercast.3 mph100%30.00 "Hg9 mi
9:00 PM63 °FOvercast.5 mph94%29.98 "Hg7 mi
8:00 PM63 °FOvercast.3 mph94%29.96 "Hg5 mi
7:00 PM63 °FPassing clouds.7 mph100%29.95 "Hg4 mi
6:00 PM64 °FPassing clouds.2 mph94%29.94 "Hg5 mi
5:00 PM64 °FPassing clouds.2 mph94%29.92 "Hg5 mi
4:56 PM66 °FPassing clouds.No wind88%29.92 "Hg5 mi
4:00 PM66 °FLight rain. Mostly cloudy.2 mph94%29.92 "Hg3 mi
3:48 PM66 °FLight rain. Overcast.2 mph88%29.92 "Hg4 mi
3:02 PM66 °FLight rain. Overcast.2 mph83%29.91 "Hg7 mi
2:00 PM68 °FMostly cloudy.2 mph78%29.91 "Hg7 mi
1:00 PM64 °FMostly cloudy.2 mph88%29.93 "Hg6 mi
11:00 AM63 °FMostly cloudy.7 mph100%29.90 "Hg4 mi
10:00 AM63 °FBroken clouds.5 mph94%29.90 "Hg6 mi
9:00 AM59 °FMore clouds than sun.3 mph100%29.89 "Hg6 mi
8:01 AM57 °FLow clouds.3 mph100%29.87 "Hg2 mi
7:01 AM57 °FPassing clouds.No wind100%29.86 "Hg2 mi
6:00 AM59 °FLight rain. Overcast.2 mph100%29.85 "Hg8 mi
5:00 AM59 °FLight rain. Overcast.No wind100%29.85 "Hg4 mi
4:00 AM59 °FLight rain. Overcast.7 mph100%29.87 "Hg5 mi
3:00 AM57 °FPassing clouds.No wind94%29.86 "Hg9 mi
2:50 AM55 °FPassing clouds.No wind100%29.86 "Hg9 mi
2:00 AM55 °FClear.No wind100%29.86 "Hg8 mi
Weather by CustomWeather, © 2014

See weather overviewHow to use our weather pages